Simultaneous Nadir Overpasses (SNOs) Predictions

Prediction of SNOs between TERRA and METOP-C Satellite Orbit:

Table of predicted SNOs for the next 14.0 days since TLE Epoch: 9/2/2023
Index Date (TERRA) Time (TERRA) Lat,Lon (TERRA) SZA (TERRA ) Date (METOP-C) Time (METOP-C) Lat,Lon (METOP-C) SZA (METOP-C ) Distance(km) Time Diff (sec)
1 09/04/2023 08:41:35 -80.66,-100.62 105.33 09/04/2023 08:41:05 -80.67,-100.47 105.32 2.89 30
2 09/04/2023 09:30:55 80.73, 67.83 74.82 09/04/2023 09:31:44 80.72, 67.69 74.82 2.64 49
3 09/07/2023 00:02:57 80.64,-151.16 75.64 09/07/2023 00:02:02 80.64,-151.07 75.63 1.63 55
4 09/07/2023 00:52:17 -80.70, 17.11 104.25 09/07/2023 00:52:40 -80.69, 16.97 104.26 2.73 23
5 09/09/2023 16:13:38 80.66, -33.62 76.70 09/09/2023 16:13:36 80.66, -33.69 76.69 1.42 2
6 09/09/2023 17:02:17 -81.67, 149.83 101.00 09/09/2023 17:03:31 -81.32, 150.28 101.15 39.85 74
7 09/12/2023 07:34:59 -80.64, -84.26 102.34 09/12/2023 07:34:31 -80.65, -84.14 102.33 2.40 28
8 09/12/2023 08:24:19 80.70, 84.08 77.79 09/12/2023 08:25:10 80.70, 83.96 77.80 2.15 51
9 09/14/2023 22:56:19 80.63,-134.74 78.67 09/14/2023 22:55:27 80.63,-134.63 78.67 2.10 52



Historial Predications of SNOs between TERRA and METOP-C
